Regional Weather Roundup
Issued by NWS

Home | Current Version | Previous Version | Text Only | Print | Product List | Glossary Off
Versions: 1 2 3 4 5 6 7 8 9 10 11 12 13 14 15 16 17 18 19 20 21 22 23 24 25 26 27 28 29 30 31 32 33 34 35 36 37 38 39 40 41 42 43 44 45 46 47 48 49 50

000
ASUS43 KMKX 040721
RWRWI

WISCONSIN REGIONAL WEATHER ROUNDUP
NATIONAL WEATHER SERVICE MILWAUKEE/SULLIVAN WI
100 AM CST SUN DEC 04 2016

NOTE: "FAIR" INDICATES FEW OR NO CLOUDS BELOW 12,000 FEET WITH NO
SIGNIFICANT WEATHER AND/OR OBSTRUCTIONS TO VISIBILITY.

WIZ001-002-006>008-014>016-023>028-040800-
NORTHWEST WISCONSIN

CITY           SKY/WX    TMP DP  RH WIND       PRES   REMARKS
SUPERIOR ARPT  CLOUDY    30  22  73 CALM      30.13F
ASHLAND        CLOUDY    29  21  72 SE6       30.16F WCI  23
HAYWARD        CLOUDY    28  21  75 SE5       30.12F WCI  23
SIREN          LGT SNOW  29  24  79 SE7       30.11F WCI  22
CUMBERLAND     LGT SNOW  28  23  80 SE7       30.12F WCI  21
RICE LAKE      FLURRIES  29  24  79 SE8       30.14F WCI  21
CHETEK         FLURRIES  29  24  79 SE6       30.14F WCI  23
LADYSMITH      CLOUDY    29  24  81 SE5       30.16F WCI  24
EAU CLAIRE     CLOUDY    30  23  75 SE7       30.15F WCI  23
MENOMONIE      CLOUDY    31  26  80 SE8       30.14F WCI  24
NEW RICHMOND   LGT SNOW  29  26  86 SE6       30.11F WCI  23
OSCEOLA        LGT SNOW  30  27  89 SE7       30.14F WCI  23
$$

WIZ003>005-009-010-017-018-040800-
NORTH CENTRAL WISCONSIN

CITY           SKY/WX    TMP DP  RH WIND       PRES   REMARKS
MANITOWISH WTR CLOUDY    26  21  80 S5        30.13F WCI  21
ARBOR VITAE    CLOUDY    29  23  76 S5        30.13F WCI  24
WOODRUFF       CLOUDY    29  23  76 S5        30.13F WCI  24
RHINELANDER    CLOUDY    28  22  78 S5        30.15F WCI  23
EAGLE RIVER    CLOUDY    26  19  72 CALM      30.14F
LAND O LAKES   CLOUDY    27  20  77 S3        30.15F
PHILLIPS       CLOUDY    26  21  83 S6        30.14S WCI  19
TOMAHAWK       CLOUDY    26  20  77 CALM      30.16F
MEDFORD        CLOUDY    26  22  84 S5        30.15S WCI  20
MERRILL        CLOUDY    27  22  82 CALM      30.18S
$$

WIZ029-030-035-036-043>047-040800-
CENTRAL WISCONSIN

CITY           SKY/WX    TMP DP  RH WIND       PRES   REMARKS
WAUSAU         CLOUDY    27  21  78 SE8       30.17F WCI  19
MOSINEE        CLOUDY    28  25  86 SE6       30.18F WCI  22
MARSHFIELD     CLOUDY    28  22  78 S8        30.16F WCI  20
STEVENS POINT  CLOUDY    26  20  77 S6        30.20S WCI  20
WAUPACA        CLOUDY    31  24  75 CALM      30.22F
WAUTOMA        CLOUDY    28  23  81 SE3       30.22F
WISC RAPIDS    CLOUDY    28  23  81 SE6       30.20F WCI  22
CAMP DOUGLAS   CLOUDY    31  25  78 SE5       30.17F WCI  26
$$

WIZ011>013-019>022-031-037>040-048>050-040800-
NORTHEAST WISCONSIN

CITY           SKY/WX    TMP DP  RH WIND       PRES   REMARKS
ANTIGO         CLOUDY    26  21  81 CALM      30.16F
SHAWANO        CLOUDY    32  24  74 CALM      30.22S
OCONTO         CLOUDY    31  22  71 SW3       30.23S
STURGEON BAY   CLOUDY    31  24  75 S5        30.24S WCI  26
GREEN BAY      CLOUDY    32  27  81 S3        30.23F
MANITOWOC      CLOUDY    30  24  78 CALM      30.24F
APPLETON       CLOUDY    30  21  69 S5        30.21S WCI  25
CLINTONVILLE   CLOUDY    30  23  74 S3        30.22S
OSHKOSH        PTCLDY    29  23  78 S3        30.22F
$$

WIZ032>034-041-042-053>061-040800-
SOUTHWEST WISCONSIN

CITY           SKY/WX    TMP DP  RH WIND       PRES   REMARKS
LA CROSSE      LGT SNOW  33  29  85 SE7       30.17F FOG     WCI  27
SPARTA         CLOUDY    32  27  81 CALM      30.18S
VIROQUA        CLOUDY    30  29  96 SE7       30.15F WCI  23
BOSCOBEL       LGT SNOW  34  29  82 CALM      30.19F
PRAIRIE DU CHI LGT SNOW  33  31  93 E5        30.18F WCI  28
PLATTEVILLE    PTCLDY    33  31  93 S8        30.19S WCI  26
$$

WIZ056-057-062-063-064-067-068-040800-
SOUTH CENTRAL WISCONSIN

CITY           SKY/WX    TMP DP  RH WIND       PRES   REMARKS
REEDSBURG      CLOUDY    31  26  81 CALM      30.18F
BARABOO/DELLS  CLOUDY    31  25  80 CALM      30.19F
LONE ROCK      CLOUDY    32  27  81 E6        30.20F WCI  26
MINERAL POINT  CLOUDY    32  32 100 S8        30.17F WCI  25
MADISON        CLOUDY    32  25  75 SE7       30.21F WCI  26
MIDDLETON      PTCLDY    33  27  79 S7        30.20F WCI  27
WATERTOWN      CLOUDY    29  27  92 SE5       30.23S WCI  24
MONROE         FLURRIES  32  30  93 S9        30.20F WCI  24
JANESVILLE     CLOUDY    34  30  86 SE3       30.21F
$$

WIZ051-052-058>065-066-070>072-040800-
SOUTHEAST WISCONSIN

CITY           SKY/WX    TMP DP  RH WIND       PRES   REMARKS
MILWAUKEE      PTCLDY    31  22  69 SW5       30.24F WCI  26
WAUKESHA       MOCLDY    28  23  80 S5        30.24F WCI  23
MILWAUKEE/TIMM CLOUDY    30  21  69 S3        30.25F
RACINE         CLEAR     28  21  75 SW3       30.26F
BURLINGTON     CLOUDY    30  26  85 CALM      30.24F
KENOSHA        CLOUDY    30  24  78 CALM      30.25F
FOND DU LAC    MOCLDY    31  23  72 SE5       30.23F WCI  26
SHEBOYGAN      CLOUDY    29  24  82 CALM      30.24F
WEST BEND      CLOUDY    30  25  80 CALM      30.23F
JUNEAU         CLOUDY    29  25  86 SE7       30.23F WCI  22
$$

LSZ147-162-040800-
LAKE SUPERIOR

STATION/POSITION TIME  TEMP    WIND        PRES    WAVE
                       AIR SEA DIR/SP/G            HT/PER
                 (UTC) (F)     (DEG/KT/KT) (MB)    (FT/S)
DEVILS ISLAND    0700   32     200/  8/ 11 1022.1F
PORT WING        0640   29     130/  1/  5 1021.0F
SAXON HARBOR     0630   31     170/  2/  5 1021.3F
$$

LMZ867-665-643>646-040800-
LAKE MICHIGAN

STATION/POSITION TIME  TEMP    WIND        PRES    WAVE
                       AIR SEA DIR/SP/G            HT/PER
                 (UTC) (F)     (DEG/KT/KT) (MB)    (FT/S)
CHAMBERS ISLAND  0630   32     210/  4/  8 1023.0S
NORTHPORT PIER   0640   32      CALM  /  3 1023.4F
SISTER BAY       0623   32     200/  9/ 11   N/A
ALGOMA LAKESHORE 0621          280/  4/  6   N/A
KEWAUNEE LAKESHO 0654   32     240/  4/  6 1023.4R
SHEBOYGAN LAKESH 0700   31     250/  5/  6 1024.8F
PORT WASHINGTON  0630   31     270/  2/  4 1025.4S
MILWAUKEE LAKESH 0700   33     230/  6/  7   N/A
S MID LAKE BUOY  0650   35 48  240/  4/  6 1024.6F   1
KENOSHA   LAKESH 0700   32     250/  4/  6 1024.4
$$

TC  - TEMPERATURE IN CELSIUS
VSB - VISIBILITY IN STATUTE MILES
WCI - WIND CHILL INDEX
HX  - HEAT INDEX




USA.gov is the U.S. government's official web portal to all federal, state and local government web resources and services.